Location: eljas
(40.1958°N, 6.8661°W)
Time: 23:12:09
(UTC+02:00)

ISS - All Passes

Search period start: 20 October 2014 00:00
Search period end: 29 October 2014 23:00
Orbit: 413 x 416 km, 51.6° (Epoch: 20 October)

Date Brightness Start Highest point End Pass type
(mag) Time Alt. Az. Time Alt. Az. Time Alt. Az.
20 Oct - 16:11:47 10° SW 16:15:05 64° SE 16:18:24 10° ENE daylight
20 Oct - 17:49:22 10° WNW 17:52:02 22° NNW 17:54:43 10° NNE daylight
20 Oct - 19:28:25 10° NNW 19:29:43 12° N 19:31:01 10° NNE daylight
20 Oct - 21:05:07 10° NNW 21:07:29 18° NNE 21:09:50 10° ENE visible
20 Oct - 22:41:16 10° NW 22:44:37 80° NE 22:47:57 10° SE visible
21 Oct - 00:19:58 10° WSW 00:20:51 11° SW 00:21:44 10° SW night (unlit)
21 Oct - 15:23:07 10° SSW 15:26:10 34° SE 15:29:14 10° ENE daylight
21 Oct - 16:59:53 10° W 17:02:53 30° NNW 17:05:53 10° NE daylight
21 Oct - 18:38:52 10° NW 18:40:24 13° N 18:41:57 10° NNE daylight
21 Oct - 20:16:17 10° NNW 20:18:13 14° NNE 20:20:09 10° NE visible
21 Oct - 21:52:20 10° NW 21:55:34 46° NNE 21:58:48 10° ESE visible
21 Oct - 23:29:34 10° W 23:32:03 19° SW 23:34:31 10° S night (unlit)
22 Oct - 14:34:50 10° S 14:37:16 19° SE 14:39:44 10° E daylight
22 Oct - 16:10:31 10° WSW 16:13:45 46° NNW 16:16:59 10° NE daylight
22 Oct - 17:49:09 10° NW 17:51:05 14° NNW 17:53:01 10° NNE daylight
22 Oct - 19:27:21 10° NNW 19:28:54 13° N 19:30:26 10° NE daylight
22 Oct - 21:03:25 10° NW 21:06:25 30° NNE 21:09:25 10° E visible
22 Oct - 22:40:04 10° WNW 22:43:08 34° SW 22:46:12 10° SSE visible
23 Oct - 13:47:38 10° SE 13:48:25 11° SE 13:49:11 10° ESE daylight
23 Oct - 15:21:18 10° SW 15:24:38 81° NW 15:27:59 10° NE daylight
23 Oct - 16:59:24 10° WNW 17:01:46 18° NNW 17:04:07 10° NNE daylight
23 Oct - 18:38:13 10° NNW 18:39:31 12° N 18:40:48 10° NNE daylight
23 Oct - 20:14:31 10° NNW 20:17:11 21° NNE 20:19:50 10° ENE visible
23 Oct - 21:50:49 10° WNW 21:54:08 65° SW 21:57:26 10° SE visible
24 Oct - 14:32:18 10° SW 14:35:33 55° SE 14:38:50 10° ENE daylight
24 Oct - 16:09:42 10° W 16:12:27 23° NNW 16:15:12 10° NNE daylight
24 Oct - 17:48:45 10° NNW 17:50:05 12° N 17:51:25 10° NNE daylight
24 Oct - 19:25:36 10° NNW 19:27:51 17° NNE 19:30:06 10° ENE daylight
24 Oct - 21:01:42 10° NW 21:05:02 70° NE 21:08:21 10° ESE visible
24 Oct - 22:39:50 10° WSW 22:41:19 13° SW 22:42:48 10° SSW visible
25 Oct - 13:43:35 10° SSW 13:46:31 29° SE 13:49:28 10° ENE daylight
25 Oct - 15:20:06 10° W 15:23:09 33° NNW 15:26:14 10° NE daylight
25 Oct - 16:59:01 10° NW 17:00:38 13° N 17:02:15 10° NNE daylight
25 Oct - 18:36:37 10° NNW 18:38:27 14° NNE 18:40:16 10° NE daylight
25 Oct - 20:12:38 10° NW 20:15:50 41° NNE 20:19:00 10° ESE visible
25 Oct - 21:49:41 10° W 21:52:21 22° SW 21:55:00 10° S visible
26 Oct - 11:55:18 10° S 11:57:30 17° SE 11:59:42 10° E daylight
26 Oct - 13:30:38 10° WSW 13:33:54 53° NNW 13:37:10 10° NE daylight
26 Oct - 15:09:09 10° NW 15:11:10 15° NNW 15:13:12 10° NNE daylight
26 Oct - 16:47:31 10° NNW 16:48:58 12° N 16:50:25 10° NNE daylight
26 Oct - 18:23:36 10° NW 18:26:31 27° NNE 18:29:26 10° E daylight
26 Oct - 20:00:08 10° WNW 20:03:17 40° SW 20:06:25 10° SSE visible
27 Oct - 12:41:20 10° SW 12:44:39 87° SE 12:48:00 10° NE daylight
27 Oct - 14:19:16 10° WNW 14:21:43 19° NNW 14:24:10 10° NNE daylight
27 Oct - 15:58:10 10° NNW 15:59:26 12° N 16:00:42 10° NNE daylight
27 Oct - 17:34:34 10° NNW 17:37:07 20° NNE 17:39:41 10° ENE daylight
27 Oct - 19:10:48 10° NW 19:14:08 76° SW 19:17:26 10° SE visible
28 Oct - 11:52:16 10° SSW 11:55:27 46° SE 11:58:40 10° ENE daylight
28 Oct - 13:29:27 10° W 13:32:16 25° NNW 13:35:07 10° NNE daylight
28 Oct - 15:08:30 10° NNW 15:09:52 12° N 15:11:14 10° NNE daylight
28 Oct - 16:45:30 10° NNW 16:47:38 16° NNE 16:49:46 10° NE daylight
28 Oct - 18:21:33 10° NW 18:24:52 60° NE 18:28:09 10° ESE daylight
28 Oct - 19:59:17 10° W 20:01:12 15° SW 20:03:06 10° SSW visible
29 Oct - 11:03:29 10° SSW 11:06:17 25° SE 11:09:05 10° ENE daylight
29 Oct - 12:39:44 10° W 12:42:51 37° NNW 12:45:59 10° NE daylight
29 Oct - 14:18:34 10° NW 14:20:16 13° N 14:21:59 10° NNE daylight
29 Oct - 15:56:22 10° NNW 15:58:04 13° N 15:59:47 10° NE daylight
29 Oct - 17:32:22 10° NW 17:35:30 36° NNE 17:38:37 10° E daylight
29 Oct - 19:09:15 10° WNW 19:12:04 26° SW 19:14:53 10° SSE visible
